Powrót do katalogu

STARLINK-2094

AktywnyŁącznośćVLEO
NORAD 47375·PAYLOAD·🇺🇸 United States

Wystrzelony Jan 20, 2021 z Cape Canaveral Space Force Station

Loading…

Następne Przeloty (najbliższe 24 godziny)

TLE

ŚwieżeSource: CelesTrak SupGP

Epoka: Sep 15, 2026, 00:30 UTC

1 47375C 21005AC  26258.02131944  .00016496  00000+0  53053-3 0  2583
2 47375  53.1587 261.4160 0001410  92.4322  24.2377 15.31688612    12

Śledź STARLINK-2094 w czasie rzeczywistym z AllMySat

Download on the App Store